Find Globalstar M044

NORAD ID: 25678 Int'l Des: 1999-019 Owner: GLOBT Country: US Constellation: globalstar operational
LEOCIRCULAR

实时位置

正在加载3D地球...

关于 Globalstar M044

正在加载描述...

即将过境

Passes for default location (London). Set your location on the main map for personalized predictions.

高度历史

Loading altitude history...

两行轨道根数

1 25678U 99019C 26107.03762943 -.00000084 00000-0 -10007-4 0 9992
2 25678 51.9978 300.3424 0005413 262.7794 271.0468 11.90264886207502
Epoch: Apr 17, 2026 • Age: 17 hours

当前状态

高度 1727.3 km
速度 7.01 km/s
星下点 -13.57°S, 172.17°E
发射日期 Apr 15, 1999
运行时间 27 years
类型 communications

技术详情

分类 Payload
质量 450.00 kg
干质量 380.00 kg
总质量 450.00 kg
长度 1.50 m
直径 0.60 m
跨度 12.00 m
形状 Box + 2 Pan
制造商 LOR
平台类型 LS-400
阶段状态 In Orbit
所有者/国家 GLOBT/US

Most Searched